RAPTOR2

基本信息
目录编号:
58959
目录名称:
RAPTOR2
国际标识:
2024-028E
轨道中心:
EARTH
卫星名称:
RAPTOR2
卫星全名:
--
卫星状态:
在轨 (已飞行749 天)
发射日期:
2024-02-14 UTC
国别 :
美国 (US)
星等 :
--
轨道信息
数据来源 国际轨道数据 AOE轨道数据
星历时间 2026-03-03T22:41:36+0800
16小时前
查看轨道信息
2026-03-03T10:00:00+0800
1天前
查看轨道信息
半长轴 7375.745km 7375.742km
偏心率 0.0011671 0.0011569
轨道倾角 39.989° 39.989°
近地点辐角 4.034° 1.198°
升交点赤经 168.068° 170.499°
平近点角 356.050° 266.301°
近地点 988.999km 989.072km
远地点 1006.217km 1006.138km
周期 105.068分钟 105.067分钟
每日圈数 13.705471 13.705478
详细信息
使用方式:
暂无
2D轨道图
3D轨道图
轨道高度分析图
轨道倾角分析图
轨道综合分析图
查看轨道综合分析图